This demonstration page uses our WeatherBlox Daily Observations layout. Learn more.

Left ArrowRight Arrow

Hourly Observations for January 30, 2015

Temp ( °F °C ) Dew Point ( °F °C ) Humidity (%) Winds ( mph kmh ) Pressure ( in mb ) Visibility ( mi km ) Precip ( " mm )
12:52 am 00:52 Clear 24 -4.4 19 -7.2 81 81 N 6 9 30.58 1035 10 16 0.00 0.00
1:52 am 01:52 Clear 23 -5 19 -7.2 85 85 N 5 7 30.58 1036 10 16 0.00 0.00
2:52 am 02:52 Clear 21 -6.1 18 -7.8 88 88 N 3 6 30.58 1036 10 16 0.00 0.00
3:52 am 03:52 Clear 22 -5.6 19 -7.2 89 89 NW 3 6 30.59 1036 10 16 0.00 0.00
4:52 am 04:52 Clear 19 -7.2 17 -8.3 92 92 Calm 30.58 1036 10 16 0.00 0.00
5:52 am 05:52 Mostly Clear 19 -7.2 17 -8.3 92 92 Calm 30.57 1035 10 16 0.00 0.00
6:52 am 06:52 Mostly Clear 22 -5.6 16 -8.9 78 78 Calm 30.57 1035 10 16 0.00 0.00
7:52 am 07:52 Mostly Sunny 18 -7.8 14 -10 84 84 SE 6 9 30.58 1035 10 16 0.00 0.00
8:52 am 08:52 Partly Cloudy 22 -5.6 17 -8.3 82 82 SSE 8 13 30.59 1036 10 16 0.00 0.00
9:52 am 09:52 Partly Cloudy 24 -4.4 18 -7.8 77 77 S 8 13 30.59 1036 10 16 0.00 0.00
10:52 am 10:52 Partly Cloudy 27 -2.8 18 -7.8 69 69 S 8 13 30.57 1035 10 16 0.00 0.00
11:52 am 11:52 Mostly Cloudy 29 -1.7 19 -7.2 66 66 S 8 13 30.53 1034 10 16 0.00 0.00
12:52 pm 12:52 Cloudy 32 0 20 -6.7 61 61 S 10 17 30.49 1033 10 16 0.00 0.00
1:52 pm 13:52 Cloudy 35 1.7 22 -5.6 59 59 S 12 19 30.44 1031 10 16 0.00 0.00
2:52 pm 14:52 Mostly Cloudy 37 2.8 23 -5 57 57 SSE 13 20 30.41 1030 10 16 0.00 0.00
3:52 pm 15:52 Mostly Cloudy 36 2.2 24 -4.4 62 62 S 13 20 30.39 1029 10 16 0.00 0.00
4:52 pm 16:52 Mostly Cloudy 35 1.7 24 -4.4 64 64 SSE 12 19 30.38 1029 10 16 0.00 0.00
5:52 pm 17:52 Cloudy 34 1.1 24 -4.4 67 67 SSE 13 20 30.36 1028 10 16 0.00 0.00
6:52 pm 18:52 Mostly Cloudy 33 0.6 24 -4.4 70 70 SSE 10 17 30.34 1028 10 16 0.00 0.00
7:52 pm 19:52 Cloudy 34 1.1 25 -3.9 70 70 SSE 14 22 30.33 1027 10 16 0.00 0.00
8:52 pm 20:52 Cloudy 33 0.6 25 -3.9 72 72 SE 9 15 30.32 1027 10 16 0.00 0.00
9:52 pm 21:52 Cloudy 33 0.6 25 -3.9 72 72 SSE 12 19 30.31 1026 10 16 0.00 0.00
10:52 pm 22:52 Cloudy 32 0 25 -3.9 75 75 SSE 8 13 30.29 1026 10 16 0.00 0.00
11:52 pm 23:52 Cloudy 37 2.8 26 -3.3 65 65 S 10 17 30.27 1025 10 16 0.00 0.00

Powered by AerisWeather